STARLINK-35421, 66062

Orbit data source: Space-Track

STARLINK-35421, 66062 is a payload satellite owned by SpaceX/Seattle (US) in LEO that was launched on Sun, 19 Oct 2025 UTC via an FALCON 9 launch vehicle from the Air Force Eastern Test Range (AFETR). Payload-class satellites include a variety of spacecraft equipped with specific instruments for various scientific and technological missions. These include communications satellites like Starlink; space stations such as the ISS; scientific satellites like the Hubble; Earth observation satellites from companies like Planet Labs, Umbra, and HawkEye 360; GPS; miniature CubeSats for education and research; and military/defense satellites.

Loading next visibility...
Identifier
66062, 2025-235E
Orbit
LEO
Country
Flag of USUS
Related business
Manufacturer
SpaceX/Seattle
Mission
Operational Commercial Communications
Bus & Motor
STARLINK V2MO, Unknown motor
Mass
575 kg wet, ~530 kg dry
Launch date (UTC)
2025-10-19 (8 months ago)
Launch vehicle
FALCON 9
Launch site
Air Force Eastern Test Range (AFETR)
Object type
Payload
Rocket body
Debris
Shape & HBR
Box + 2 Pan, 17.7 m
Radar Cross Section
36.964 m², Large (>1 m²)

Expand to show TLE details & history
Last TLE update: 2 days ago

TLE from 2 days ago
0 STARLINK-35421
1 66062U 25235E   26170.33335648  .00060163  00000-0  17798-2 0  9998
2 66062  53.1597 133.0061 0001137  87.6296 343.4441 15.34359599  5883
Epoch: 2026-06-19T08:00Z
TLE epoch observation values (Epoch: 2026-06-19T08:00:01.999Z)
Latitude
49.3512°
Longitude
165.6336°
Altitude
467.748 km
Speed
7.639 km/s
True Right ascension
12h 52m 49s
True Declination
49° 10' 26"
Sunlit
Object was in daylight at epoch
Visualization orbit readout
Latitude
Unknown
Longitude
Unknown
Altitude
Unknown
Speed
Unknown
Apparent Right ascension
Unknown
Apparent Declination
Unknown
Sunlit
N/A
Visualization observer readout
Local Sidereal Time
10:18:36
Azimuth
Unknown
Elevation
Unknown
Doppler factor
Unknown
Orbital elements
Apogee altitude
463.858 km
Perigee altitude
462.302 km
Semi-major axis
6,841.217 km
Eccentricity
0.00011
Inclination
53.1597°
RAAN
133.0061°
Arg. of periapsis
87.6296°
True anomaly
343.44039°
Mean anomaly
343.4441°
Eccentric anomaly
343.44224°
Mean motion
3.83569 °/min
Orbital period
93.86 mins
BSTAR
0.0017798
Loading maneuver chart data...
Computing Atmospheric mass density...
Loading historical data...
Loading historical data...
Loading historical data...
Loading historical data...
Loading historical data...
Loading historical data...
Loading historical data...

Documentation

Showing up to 5 results
|